Back to catalog

COSMOS 2251 DEB

AliveLEO
NORAD 34004·DEBRIS·🇷🇺 Russia

Launched Jun 16, 1993 from Plesetsk Cosmodrome

Loading…

Next Passes (next 24 hours)

TLE

FreshSource: Space-Track

Epoch: Sep 14, 2026, 04:29 UTC

1 34004U 93036GP  26257.18699878  .00002302  00000-0  58562-3 0  9996
2 34004  74.0343 155.6413 0029925 107.3969 253.0468 14.50999451920232

Track COSMOS 2251 DEB in real time with AllMySat

Download on the App Store